�������l�o���
Date,Time,MP-1(��Sv/h),MP-2(��Sv/h),MP-3(��Sv/h),MP-4(��Sv/h),MP-5(��Sv/h),MP-6(��Sv/h),MP-7(��Sv/h),����,����(m/s),���J
2021/03/11,00:00,0.177,0.160,0.260,0.246,0.240,0.140,0.085,�k,3.4,��
2021/03/11,00:10,0.178,0.159,0.259,0.246,0.239,0.139,0.085,�k�k��,3.8,��
2021/03/11,00:20,0.178,0.160,0.260,0.245,0.239,0.140,0.086,�k,3.5,��
2021/03/11,00:30,0.177,0.159,0.260,0.245,0.237,0.139,0.085,�k,3.6,��
2021/03/11,00:40,0.178,0.160,0.259,0.246,0.239,0.139,0.085,�k�k��,3.2,��
2021/03/11,00:50,0.177,0.159,0.259,0.245,0.239,0.139,0.084,�k,3.9,��
2021/03/11,01:00,0.177,0.159,0.259,0.244,0.239,0.139,0.085,�k,3.8,��
2021/03/11,01:10,0.177,0.159,0.259,0.246,0.239,0.140,0.086,�k,4.6,��
2021/03/11,01:20,0.178,0.160,0.260,0.247,0.239,0.139,0.086,�k,5.5,��
2021/03/11,01:30,0.178,0.160,0.260,0.246,0.238,0.140,0.085,�k�k��,5.8,��
2021/03/11,01:40,0.177,0.160,0.260,0.245,0.238,0.140,0.085,�k�k��,6.9,��
2021/03/11,01:50,0.176,0.160,0.259,0.244,0.239,0.140,0.085,�k�k��,6.5,��
2021/03/11,02:00,0.177,0.160,0.259,0.246,0.239,0.140,0.085,�k��,5.7,��
2021/03/11,02:10,0.177,0.161,0.259,0.244,0.239,0.140,0.086,�k��,4.6,��
2021/03/11,02:20,0.178,0.161,0.260,0.246,0.239,0.139,0.085,�k�k��,2.2,��
2021/03/11,02:30,0.178,0.159,0.259,0.246,0.238,0.140,0.085,�k�k��,1.9,��
2021/03/11,02:40,0.178,0.160,0.259,0.244,0.239,0.139,0.084,�k��,2.6,��
2021/03/11,02:50,0.178,0.159,0.261,0.245,0.240,0.140,0.086,�k�k��,2.7,��
2021/03/11,03:00,0.177,0.161,0.260,0.245,0.240,0.140,0.085,�k�k��,3.6,��
2021/03/11,03:10,0.177,0.160,0.259,0.245,0.239,0.139,0.084,�k�k��,3.1,��
2021/03/11,03:20,0.178,0.160,0.260,0.246,0.239,0.140,0.085,�k�k��,4.0,��
2021/03/11,03:30,0.179,0.160,0.260,0.246,0.240,0.140,0.086,�k�k��,3.8,��
2021/03/11,03:40,0.176,0.160,0.259,0.246,0.239,0.140,0.085,�k�k��,3.9,��
2021/03/11,03:50,0.177,0.161,0.260,0.244,0.239,0.140,0.085,�k�k��,3.1,��
2021/03/11,04:00,0.177,0.161,0.259,0.245,0.239,0.139,0.085,�k�k��,2.5,��
2021/03/11,04:10,0.178,0.160,0.260,0.245,0.239,0.140,0.085,�k�k��,3.3,��
2021/03/11,04:20,0.176,0.160,0.259,0.245,0.241,0.139,0.085,�k�k��,3.0,��
2021/03/11,04:30,0.179,0.160,0.260,0.244,0.240,0.140,0.086,�k��,3.4,��
2021/03/11,04:40,0.177,0.160,0.260,0.245,0.239,0.139,0.085,�k��,2.3,��
2021/03/11,04:50,0.178,0.161,0.260,0.244,0.240,0.140,0.085,�k��,2.9,��
2021/03/11,05:00,0.177,0.159,0.260,0.247,0.238,0.140,0.085,�k��,3.3,��
2021/03/11,05:10,0.177,0.161,0.260,0.246,0.239,0.140,0.085,�k��,3.9,��
2021/03/11,05:20,0.177,0.159,0.260,0.246,0.239,0.140,0.085,�k��,4.4,��
2021/03/11,05:30,0.178,0.159,0.260,0.245,0.239,0.140,0.085,�k��,5.0,��
2021/03/11,05:40,0.178,0.160,0.259,0.245,0.239,0.140,0.085,��,5.4,��
2021/03/11,05:50,0.177,0.160,0.260,0.246,0.238,0.140,0.085,���k��,5.7,��
2021/03/11,06:00,0.178,0.160,0.260,0.245,0.238,0.139,0.086,���k��,6.5,��
2021/03/11,06:10,0.178,0.160,0.259,0.245,0.240,0.140,0.085,�k��,6.5,��
2021/03/11,06:20,0.177,0.160,0.259,0.245,0.238,0.139,0.085,�k��,5.5,��
2021/03/11,06:30,0.177,0.159,0.259,0.244,0.240,0.139,0.085,�k��,5.6,��
2021/03/11,06:40,0.177,0.160,0.260,0.244,0.238,0.140,0.085,���k��,6.1,��
2021/03/11,06:50,0.177,0.160,0.260,0.243,0.238,0.140,0.085,���k��,6.0,��
2021/03/11,07:00,0.177,0.161,0.260,0.246,0.240,0.140,0.085,���k��,3.2,��
2021/03/11,07:10,0.178,0.159,0.260,0.244,0.239,0.139,0.085,���k��,3.0,��
2021/03/11,07:20,0.177,0.160,0.259,0.244,0.238,0.139,0.085,�k��,2.3,��
2021/03/11,07:30,0.177,0.161,0.258,0.244,0.239,0.140,0.085,�k��,1.5,��
2021/03/11,07:40,0.176,0.160,0.258,0.244,0.240,0.140,0.085,�k�k��,1.0,��
2021/03/11,07:50,0.177,0.159,0.259,0.246,0.241,0.140,0.085,���쓌,1.3,��
2021/03/11,08:00,0.177,0.160,0.259,0.244,0.238,0.139,0.085,��,2.0,��
2021/03/11,08:10,0.178,0.160,0.258,0.244,0.239,0.140,0.085,��,1.2,��
2021/03/11,08:20,0.177,0.160,0.258,0.243,0.238,0.140,0.084,�쓌,0.8,��
2021/03/11,08:30,0.178,0.160,0.258,0.244,0.240,0.139,0.085,���k��,2.0,��
2021/03/11,08:40,0.178,0.159,0.258,0.244,0.239,0.139,0.085,�쓌,1.6,��
2021/03/11,08:50,0.178,0.159,0.258,0.244,0.239,0.140,0.086,���쓌,1.5,��
2021/03/11,09:00,0.178,0.159,0.258,0.244,0.239,0.140,0.085,��,1.7,��
2021/03/11,09:10,0.176,0.160,0.259,0.245,0.239,0.140,0.086,���쓌,2.0,��
2021/03/11,09:20,0.176,0.160,0.258,0.245,0.238,0.140,0.085,�쓌,2.5,��
2021/03/11,09:30,0.177,0.159,0.258,0.244,0.240,0.140,0.084,��쓌,2.8,��
2021/03/11,09:40,0.177,0.159,0.258,0.244,0.238,0.138,0.086,�쓌,3.6,��
2021/03/11,09:50,0.177,0.160,0.260,0.246,0.239,0.139,0.085,�쓌,3.3,��
2021/03/11,10:00,0.176,0.159,0.258,0.243,0.239,0.137,0.085,�쓌,3.5,��
2021/03/11,10:10,0.176,0.160,0.258,0.244,0.238,0.139,0.084,�쓌,4.0,��
2021/03/11,10:20,0.176,0.159,0.259,0.244,0.240,0.139,0.085,�쓌,4.4,��
2021/03/11,10:30,0.176,0.159,0.257,0.244,0.239,0.139,0.086,�쓌,4.4,��
2021/03/11,10:40,0.176,0.159,0.257,0.244,0.239,0.140,0.085,�쓌,3.8,��
2021/03/11,10:50,0.176,0.159,0.258,0.243,0.240,0.140,0.084,���쓌,4.7,��
2021/03/11,11:00,0.176,0.161,0.258,0.245,0.239,0.139,0.085,�쓌,3.9,��
2021/03/11,11:10,0.175,0.159,0.258,0.245,0.239,0.139,0.085,�쓌,4.5,��
2021/03/11,11:20,0.177,0.159,0.258,0.245,0.238,0.140,0.085,�쓌,3.9,��
2021/03/11,11:30,0.176,0.159,0.259,0.244,0.240,0.139,0.085,�쓌,3.2,��
2021/03/11,11:40,0.177,0.160,0.261,0.245,0.238,0.140,0.085,�쓌,3.9,��
2021/03/11,11:50,0.176,0.160,0.258,0.245,0.241,0.140,0.085,�쓌,4.0,��
2021/03/11,12:00,0.177,0.159,0.259,0.244,0.238,0.140,0.085,�쓌,3.9,��
2021/03/11,12:10,0.176,0.160,0.258,0.246,0.240,0.140,0.086,�쓌,5.0,��
2021/03/11,12:20,0.177,0.159,0.258,0.245,0.238,0.140,0.084,�쓌,4.9,��
2021/03/11,12:30,0.176,0.160,0.259,0.245,0.239,0.139,0.085,�쓌,4.9,��
2021/03/11,12:40,0.176,0.159,0.257,0.245,0.238,0.140,0.085,��쓌,5.2,��
2021/03/11,12:50,0.177,0.160,0.259,0.245,0.241,0.140,0.084,��쓌,5.7,��
2021/03/11,13:00,0.175,0.161,0.257,0.245,0.238,0.140,0.085,�쓌,5.4,��
2021/03/11,13:10,0.177,0.159,0.259,0.245,0.240,0.140,0.085,�쓌,5.3,��
2021/03/11,13:20,0.177,0.160,0.258,0.246,0.238,0.140,0.085,�쓌,5.6,��
2021/03/11,13:30,0.177,0.159,0.260,0.245,0.239,0.139,0.084,�쓌,5.4,��
2021/03/11,13:40,0.176,0.160,0.257,0.245,0.238,0.140,0.085,�쓌,4.8,��
2021/03/11,13:50,0.178,0.159,0.257,0.245,0.238,0.140,0.085,��쓌,5.5,��
2021/03/11,14:00,0.177,0.159,0.256,0.246,0.238,0.138,0.085,�쓌,5.3,��
2021/03/11,14:10,0.177,0.160,0.255,0.244,0.240,0.139,0.085,��쓌,5.5,��
2021/03/11,14:20,0.177,0.160,0.256,0.244,0.237,0.140,0.085,��쓌,5.8,��
2021/03/11,14:30,0.177,0.160,0.256,0.246,0.241,0.140,0.085,��쓌,5.8,��
2021/03/11,14:40,0.177,0.160,0.258,0.244,0.238,0.139,0.085,��쓌,5.9,��
2021/03/11,14:50,0.177,0.159,0.257,0.245,0.240,0.140,0.085,��쓌,5.7,��
2021/03/11,15:00,0.176,0.160,0.258,0.245,0.237,0.140,0.085,��쓌,5.5,��
2021/03/11,15:10,0.176,0.159,0.257,0.246,0.240,0.140,0.085,��쓌,6.2,��
2021/03/11,15:20,0.177,0.160,0.258,0.246,0.240,0.139,0.084,��쓌,6.0,��
2021/03/11,15:30,0.175,0.159,0.259,0.245,0.240,0.140,0.084,��쓌,6.3,��
2021/03/11,15:40,0.178,0.160,0.258,0.246,0.240,0.139,0.084,��쓌,6.9,��
2021/03/11,15:50,0.176,0.161,0.257,0.246,0.239,0.139,0.084,��쓌,5.9,��
2021/03/11,16:00,0.176,0.159,0.257,0.245,0.239,0.139,0.084,��쓌,5.6,��
2021/03/11,16:10,0.178,0.159,0.259,0.245,0.239,0.140,0.084,��쓌,7.1,��
2021/03/11,16:20,0.177,0.160,0.259,0.246,0.239,0.139,0.085,��쓌,6.0,��
2021/03/11,16:30,0.177,0.160,0.260,0.245,0.240,0.140,0.084,��쓌,6.5,��
2021/03/11,16:40,0.177,0.160,0.260,0.244,0.239,0.141,0.085,��,8.8,��
2021/03/11,16:50,0.176,0.161,0.259,0.246,0.240,0.142,0.084,��,8.1,��
2021/03/11,17:00,0.177,0.160,0.259,0.245,0.240,0.141,0.085,��,7.4,��
2021/03/11,17:10,0.177,0.160,0.260,0.245,0.240,0.141,0.084,��쓌,6.8,��
2021/03/11,17:20,0.176,0.161,0.259,0.246,0.241,0.141,0.085,��,7.5,��
2021/03/11,17:30,0.177,0.161,0.260,0.245,0.240,0.141,0.084,��,6.8,��
2021/03/11,17:40,0.177,0.160,0.260,0.245,0.238,0.141,0.084,��,6.2,��
2021/03/11,17:50,0.177,0.160,0.260,0.245,0.241,0.140,0.086,��,7.8,��
2021/03/11,18:00,0.177,0.161,0.259,0.245,0.240,0.139,0.085,��,7.7,��
2021/03/11,18:10,0.177,0.161,0.259,0.245,0.240,0.140,0.085,��,7.4,��
2021/03/11,18:20,0.177,0.161,0.258,0.245,0.240,0.141,0.084,��,6.6,��
2021/03/11,18:30,0.177,0.159,0.261,0.246,0.240,0.140,0.085,��쐼,7.9,��
2021/03/11,18:40,0.176,0.160,0.258,0.245,0.240,0.140,0.085,��쐼,7.3,��
2021/03/11,18:50,0.177,0.160,0.259,0.244,0.240,0.140,0.085,��쐼,8.8,��
2021/03/11,19:00,0.178,0.159,0.260,0.245,0.238,0.139,0.085,��쐼,8.1,��
2021/03/11,19:10,0.177,0.160,0.259,0.245,0.239,0.140,0.085,��쐼,7.8,��
2021/03/11,19:20,0.177,0.160,0.260,0.245,0.239,0.140,0.085,��쐼,6.2,��
2021/03/11,19:30,0.177,0.160,0.260,0.246,0.240,0.140,0.086,��쐼,6.4,��
2021/03/11,19:40,0.178,0.160,0.259,0.246,0.239,0.140,0.086,��쐼,4.7,��
2021/03/11,19:50,0.177,0.161,0.259,0.245,0.240,0.140,0.086,�쐼,5.2,��
2021/03/11,20:00,0.178,0.160,0.259,0.246,0.241,0.141,0.085,�쐼,5.1,��
2021/03/11,20:10,0.178,0.160,0.260,0.245,0.240,0.141,0.085,��쐼,4.6,��
2021/03/11,20:20,0.178,0.160,0.259,0.247,0.240,0.140,0.085,��쐼,4.0,��
2021/03/11,20:30,0.177,0.160,0.259,0.244,0.240,0.141,0.084,��쐼,4.7,��
2021/03/11,20:40,0.177,0.160,0.260,0.245,0.240,0.140,0.085,��쐼,4.9,��
2021/03/11,20:50,0.177,0.160,0.261,0.246,0.238,0.139,0.085,��쐼,4.7,��
2021/03/11,21:00,0.178,0.161,0.260,0.246,0.240,0.140,0.086,��쐼,5.5,��
2021/03/11,21:10,0.177,0.160,0.260,0.247,0.240,0.139,0.085,�쐼,7.4,��
2021/03/11,21:20,0.178,0.161,0.260,0.245,0.239,0.141,0.085,�쐼,8.1,��
2021/03/11,21:30,0.178,0.160,0.260,0.246,0.239,0.141,0.085,��쐼,5.8,��
2021/03/11,21:40,0.177,0.161,0.260,0.246,0.240,0.140,0.085,��쐼,6.8,��
2021/03/11,21:50,0.178,0.160,0.260,0.246,0.240,0.141,0.086,��쐼,6.2,��
2021/03/11,22:00,0.177,0.160,0.259,0.246,0.240,0.139,0.085,��쐼,6.4,��
2021/03/11,22:10,0.176,0.161,0.259,0.246,0.240,0.140,0.085,�쐼,6.5,��
2021/03/11,22:20,0.178,0.161,0.260,0.245,0.239,0.140,0.084,�쐼,6.3,��
2021/03/11,22:30,0.177,0.161,0.260,0.246,0.239,0.140,0.085,��쐼,5.8,��
2021/03/11,22:40,0.178,0.161,0.259,0.245,0.239,0.140,0.086,�쐼,5.7,��
2021/03/11,22:50,0.177,0.160,0.260,0.245,0.240,0.140,0.085,�쐼,6.7,��
2021/03/11,23:00,0.178,0.161,0.260,0.246,0.239,0.140,0.085,�쐼,8.2,��
2021/03/11,23:10,0.178,0.161,0.260,0.246,0.239,0.139,0.085,�쐼,7.5,��
2021/03/11,23:20,0.178,0.161,0.261,0.246,0.240,0.139,0.084,�쐼,6.3,��
2021/03/11,23:30,0.177,0.160,0.261,0.246,0.240,0.141,0.085,���쐼,7.0,��
2021/03/11,23:40,0.177,0.161,0.261,0.246,0.239,0.140,0.085,���쐼,1.9,��
2021/03/11,23:50,0.177,0.161,0.260,0.245,0.240,0.140,0.085,���k��,0.8,��
